Location: Unspecified
(0.0000°N, 0.0000°E)
Time: 11:18:41
(UTC+02:00)

deb Ariane - Visible Passes

Search period start: 23 April 2014 00:00
Search period end: 03 May 2014 00:00
Orbit: 184 x 18280 km, 7.5° (Epoch: 22 April)

Date Brightness Start Highest point End Pass type
(mag) Time Alt. Az. Time Alt. Az. Time Alt. Az.
23 Apr 9.3 01:40:22 10° W 04:05:48 84° SSE 06:03:04 10° E visible
23 Apr 8.5 23:00:22 10° W 23:22:31 76° S 03:06:24 10° E visible
24 Apr 8.7 06:09:56 27° W 08:56:05 80° N 09:12:52 10° ENE visible
24 Apr 6.5 20:24:22 10° W 20:31:18 74° S 21:10:19 19° E visible
25 Apr 9.4 02:11:36 10° W 05:14:47 88° SSE 06:32:57 10° E visible
25 Apr 8.8 23:27:11 10° W 23:55:16 77° S 03:38:27 10° E visible
26 Apr 8.4 06:32:59 20° W 09:24:06 76° N 09:38:01 10° ENE visible
26 Apr 6.8 20:48:01 10° W 20:56:13 73° S 22:51:50 10° E visible
27 Apr 9.5 02:36:57 10° W 05:57:49 90° NNW 06:56:23 10° E visible
27 Apr 8.9 23:48:09 10° W 00:22:27 78° S 04:02:08 10° E visible
28 Apr 8.2 06:50:17 15° W 09:45:08 74° N 09:57:15 10° ENE visible
28 Apr 7.1 21:05:55 10° W 21:15:15 72° S 23:46:58 10° E visible
29 Apr 9.6 02:56:14 10° W 06:25:18 87° NNW 07:13:36 10° E visible
30 Apr 8.9 00:03:16 10° W 01:40:50 66° ESE 04:18:28 10° E visible
30 Apr 8.1 07:01:54 11° W 09:59:39 72° N 10:10:40 10° ENE visible
30 Apr 7.2 21:18:03 10° W 21:28:16 72° S 00:17:51 10° E visible
01 May 9.7 03:09:13 10° W 06:41:49 86° NNW 07:24:47 10° E visible
02 May 9.0 00:12:29 10° W 01:47:24 70° ESE 04:27:57 10° E visible
02 May 8.0 07:17:18 10° W 10:07:52 70° N 10:18:18 10° ENE visible
02 May 7.3 21:24:26 10° W 21:35:10 71° S 22:08:30 35° ESE visible
